"Time","Temp","Dewpoint","Humidity","Pressure","Direction","Speed","Gust","Precip","PrecipRate"
"00:04:57","53.3","47.1","79.3","30.24","98","0","0","0.00","0.00"
"00:09:57","53.3","47.3","80","30.24","98","0","0","0.00","0.00"
"00:14:56","53.2","47.2","80","30.24","98","0","0","0.00","0.00"
"00:19:56","53.1","47.3","80.9","30.23","98","0","0","0.00","0.00"
"00:24:56","52.9","47.4","81.5","30.23","98","0","0","0.00","0.00"
"00:29:59","52.8","47.1","81","30.23","98","0.1","1.2","0.00","0.00"
"00:34:58","52.9","47.2","81","30.22","98","0","0","0.00","0.00"
"00:39:58","52.9","47.2","81","30.22","98","0","0","0.00","0.00"
"00:44:58","52.9","47.2","81","30.22","98","0","0","0.00","0.00"
"00:49:57","52.8","47.1","81.1","30.22","98","0","0","0.00","0.00"
"00:54:57","52.6","47.3","82","30.22","98","0","0","0.00","0.00"
"00:59:56","52.4","47.1","82","30.22","98","0","0","0.00","0.00"
"01:04:57","52.3","47","82","30.22","98","0","0","0.00","0.00"
"01:09:57","52.3","47","82","30.22","98","0","0","0.00","0.00"
"01:14:57","52.3","47","82","30.22","98","0","0","0.00","0.00"
"01:19:56","52.2","46.9","82","30.21","98","0","0","0.00","0.00"
"01:24:59","52.1","46.9","82.3","30.21","98","0","0","0.00","0.00"
"01:29:59","51.9","46.9","83","30.21","98","0","0","0.00","0.00"
"01:34:58","51.8","46.8","83","30.20","98","0","0","0.00","0.00"
"01:39:58","51.6","46.7","83.2","30.20","98","0","0","0.00","0.00"
"01:44:58","51.6","46.9","84","30.20","98","0","0","0.00","0.00"
"01:49:56","51.5","46.8","84","30.20","98","0","0","0.00","0.00"
"01:54:59","51.4","46.6","83.8","30.20","98","0","0","0.00","0.00"
"01:59:57","51.4","46.7","84","30.20","98","0","0","0.00","0.00"
"02:04:58","51.5","46.8","84","30.19","98","0","0","0.00","0.00"
"02:09:57","51.4","46.7","84","30.19","98","0","0","0.00","0.00"
"02:14:57","51.3","46.9","84.8","30.20","98","0","0","0.00","0.00"
"02:19:56","51.2","46.8","85","30.20","98","0","0","0.00","0.00"
"02:24:59","51.1","46.7","85","30.20","98","0","0","0.00","0.00"
"02:29:58","51.1","46.7","85","30.20","98","0","0","0.00","0.00"
"02:34:58","51.1","46.8","85.2","30.19","98","0","0","0.00","0.00"
"02:39:57","51.2","47.2","86","30.19","98","0","0","0.00","0.00"
"02:44:57","51.2","47.2","86","30.19","98","0","0","0.00","0.00"
"02:49:56","51.3","47.3","86","30.19","98","0","0","0.00","0.00"
"02:54:59","51.3","47.3","86","30.19","98","0","0","0.00","0.00"
"02:59:58","51.2","47.4","86.6","30.19","98","0","0","0.00","0.00"
"03:04:57","51.2","47.3","86.3","30.19","98","0","0","0.00","0.00"
"03:09:56","51.4","47.4","86","30.19","98","0","0","0.00","0.00"
"03:14:58","51.5","47.5","86","30.19","98","0","0","0.00","0.00"
"03:19:58","51.5","47.5","86","30.19","98","0","0","0.00","0.00"
"03:24:57","51.5","47.5","86","30.19","98","0","0","0.00","0.00"
"03:29:56","51.5","47.5","86","30.19","98","0","0","0.00","0.00"
"03:34:56","51.6","47.8","86.9","30.19","98","0","0","0.00","0.00"
"03:39:59","51.6","47.9","87","30.19","98","0","0","0.00","0.00"
"03:44:56","51.6","47.6","86.1","30.19","98","0","0","0.00","0.00"
"03:49:57","51.6","47.8","86.7","30.19","98","0","0","0.00","0.00"
"03:54:57","51.7","48","87","30.19","98","0","0","0.00","0.00"
"03:59:57","51.7","47.9","86.7","30.19","98","0","0","0.00","0.00"
"04:04:57","51.8","47.9","86.6","30.19","98","0","0","0.00","0.00"
"04:09:56","51.9","48.2","87","30.19","98","0","0","0.00","0.00"
"04:14:56","51.9","48.2","87","30.19","98","0","0","0.00","0.00"
"04:19:56","51.9","48.2","87","30.19","98","0","0","0.00","0.00"
"04:24:59","52","48.3","87","30.19","98","0","0","0.00","0.00"
"04:29:59","52","48.3","87","30.19","98","0","0","0.00","0.00"
"04:34:58","52","48.3","87","30.19","98","0","0","0.00","0.00"
"04:39:58","52","48.3","87","30.19","98","0","0","0.00","0.00"
"04:44:57","51.9","48.2","87","30.19","98","0","0","0.00","0.00"
"04:49:57","51.9","48.2","87","30.19","98","0","0","0.00","0.00"
"04:54:56","51.8","48.1","87","30.19","98","0","0","0.00","0.00"
"04:59:59","51.8","48.1","87","30.19","98","0","0","0.00","0.00"
"05:04:56","51.7","48","87","30.19","98","0","0","0.00","0.00"
"05:09:59","51.7","48","87","30.19","98","0","0","0.00","0.00"
"05:14:56","51.6","48","87.2","30.19","98","0","0","0.00","0.00"
"05:19:59","51.7","48.1","87.3","30.19","98","0","1.2","0.00","0.00"
"05:24:59","51.8","48.1","87","30.19","98","0.1","1.2","0.00","0.00"
"05:29:58","52","48.3","87","30.19","98","0","0","0.00","0.00"
"05:34:57","52","48.3","87","30.18","98","0","1.2","0.00","0.00"
"05:39:57","52","48.3","87","30.18","98","0.3","1.2","0.00","0.00"
"05:44:56","52","48.2","86.8","30.19","97","0.1","2.4","0.00","0.00"
"05:49:59","52.1","48.2","86.7","30.19","95","0.2","1.2","0.00","0.00"
"05:54:58","52.2","48.2","86.2","30.19","87","0.3","2.4","0.00","0.00"
"05:59:56","52.3","47.8","84.9","30.19","86","0.1","2.3","0.00","0.00"
"06:04:56","52.5","47.7","83.7","30.18","86","0.4","2.4","0.00","0.00"
"06:09:57","52.8","47.8","83","30.18","86","0.1","1.2","0.00","0.00"
"06:14:57","53","47.7","82","30.18","82","0.2","2.4","0.00","0.00"
"06:19:56","53.3","47.7","81.2","30.18","27","0.9","3.6","0.00","0.00"
"06:24:58","53.6","47.8","80.7","30.18","355","1.3","4.8","0.00","0.00"
"06:29:56","53.9","47.9","80","30.18","349","1.8","6","0.00","0.00"
"06:34:59","54.1","47.8","79.1","30.18","345","0.1","3.5","0.00","0.00"
"06:39:58","54.3","47.8","78.6","30.18","345","0.6","2.4","0.00","0.00"
"06:44:57","54.5","48","78.7","30.18","345","0.3","2.4","0.00","0.00"
"06:49:56","54.7","48","78","30.18","345","0.2","2.3","0.00","0.00"
"06:54:58","54.9","48.1","77.8","30.18","345","0.9","3.6","0.00","0.00"
"06:59:57","55","48.2","77.8","30.19","346","0.3","2.4","0.00","0.00"
"07:04:57","55.2","48.2","77.3","30.19","345","0.6","3.6","0.00","0.00"
"07:09:56","55.3","48.5","77.7","30.19","346","0.1","1.2","0.00","0.00"
"07:14:59","55.4","48.6","77.8","30.19","346","0.6","3.6","0.00","0.00"
"07:19:58","55.5","48.4","77","30.18","346","0.8","4.8","0.00","0.00"
"07:24:57","55.6","48.5","77","30.18","346","2","4.8","0.00","0.00"
"07:29:59","55.8","48.7","77","30.18","346","0.7","3.6","0.00","0.00"
"07:34:58","55.9","48.6","76.4","30.18","346","0.6","3.5","0.00","0.00"
"07:39:57","56.1","48.8","76.8","30.18","346","0","1.2","0.00","0.00"
"07:44:59","56.2","48.7","76.1","30.18","346","0.8","2.4","0.00","0.00"
"07:49:58","56.3","49","76.5","30.18","355","1","2.4","0.00","0.00"
"07:54:56","56.5","49.1","76.2","30.18","355","1.3","2.4","0.00","0.00"
"07:59:59","56.8","49.6","76.8","30.18","0","1.3","4.8","0.00","0.00"
"08:04:59","57","49.7","76.4","30.18","5","0.6","2.4","0.00","0.00"
"08:09:59","57.3","50","76.5","30.18","7","0.2","2.4","0.00","0.00"
"08:14:58","57.7","50.2","76.2","30.18","2","0.7","3.6","0.00","0.00"
"08:19:57","58","50.2","75.3","30.18","355","1.2","3.6","0.00","0.00"
"08:24:56","58.3","50.4","74.9","30.18","349","0.9","3.6","0.00","0.00"
"08:29:58","58.6","50.6","74.8","30.18","325","0.6","2.4","0.00","0.00"
"08:34:57","58.9","51","74.9","30.18","325","0.9","3.6","0.00","0.00"
"08:39:56","59.3","51","74.2","30.18","327","0.9","3.6","0.00","0.00"
"08:44:59","59.7","50.8","72.3","30.19","342","2.5","3.6","0.00","0.00"
"08:49:58","60","50.7","71.5","30.19","359","1.2","3.6","0.00","0.00"
"08:54:57","60.4","51","71.2","30.19","319","0.7","4.8","0.00","0.00"
"08:59:56","60.9","51.4","71","30.19","320","0.2","1.2","0.00","0.00"
"09:04:59","61.4","50.9","68.6","30.19","320","1.8","4.8","0.00","0.00"
"09:09:59","61.7","51.1","68.3","30.19","321","1","4.8","0.00","0.00"
"09:14:57","62.1","51.6","68.4","30.19","325","0.7","4.8","0.00","0.00"
"09:19:59","62.6","51.9","68.1","30.18","337","1.5","4.6","0.00","0.00"
"09:24:56","63.1","52.2","67.6","30.18","340","0.6","2.4","0.00","0.00"
"09:29:58","63.8","52.5","66.9","30.18","359","1.8","6","0.00","0.00"
"09:34:59","64.4","52.7","65.8","30.18","102","2.3","6","0.00","0.00"
"09:39:57","64.7","53","65.8","30.18","94","1.1","3.6","0.00","0.00"
"09:44:59","66","54","65.2","30.18","54","1.1","3.6","0.00","0.00"
"09:49:56","67.8","54.4","62.4","30.16","42","1.5","3.6","0.00","0.00"
"09:54:57","68.2","53.6","59.7","30.16","138","2.1","6","0.00","0.00"
"09:59:59","67.5","53.2","60.2","30.16","101","1.8","4.8","0.00","0.00"
"10:04:58","67.7","52.9","59.1","30.16","110","2.4","4.8","0.00","0.00"
"10:09:57","67.4","52.2","58.1","30.16","106","3.6","8.4","0.00","0.00"
"10:14:59","67.8","52.5","58.2","30.16","68","2.5","8.1","0.00","0.00"
"10:19:57","68.1","52.6","57.7","30.16","89","2.2","6","0.00","0.00"
"10:24:59","68.4","52.8","57.6","30.16","82","2","6","0.00","0.00"
"10:29:57","68.1","52.2","56.9","30.16","102","2.9","10.8","0.00","0.00"
"10:34:56","68.2","52.8","57.7","30.16","81","1.5","3.6","0.00","0.00"
"10:39:59","68.7","53","57.4","30.16","95","2.5","8.4","0.00","0.00"
"10:44:57","68.7","52.4","56","30.16","124","3.7","13.2","0.00","0.00"
"10:49:59","68.5","52.4","56.5","30.16","114","2.5","8.4","0.00","0.00"
"10:54:58","68.5","52.4","56.5","30.16","115","1.4","4.8","0.00","0.00"
"10:59:56","68.3","52.3","56.6","30.16","355","1.1","2.4","0.00","0.00"
"11:04:55","68.5","52.9","57.7","30.15","66","1.6","4.8","0.00","0.00"
"11:09:58","68.8","53.4","58.1","30.15","341","1.1","3.6","0.00","0.00"
"11:14:57","68.5","52.6","56.8","30.15","241","1.9","4.8","0.00","0.00"
"11:19:56","68.7","53.2","57.8","30.15","99","1.4","7.2","0.00","0.00"
"11:24:58","68.5","52.6","56.9","30.15","125","1.8","4.8","0.00","0.00"
"11:29:57","68.9","53.1","57.1","30.15","124","1.2","3.6","0.00","0.00"
"11:34:59","68.6","52.5","56.5","30.15","97","1","7.2","0.00","0.00"
"11:39:59","68.9","53.3","57.7","30.15","122","0.6","2.4","0.00","0.00"
"11:44:57","69.2","53.9","58.2","30.15","320","1.2","4.8","0.00","0.00"
"11:49:59","69.4","53.9","57.7","30.15","343","2.6","10.8","0.00","0.00"
"11:54:58","69.8","54.3","57.8","30.15","356","2.3","10.4","0.00","0.00"
"11:59:56","69.8","54","57.3","30.15","59","1.5","6","0.00","0.00"
"12:04:56","69.9","54.3","57.8","30.14","86","2.3","6","0.00","0.00"
"12:09:59","70.3","54.4","57.1","30.14","359","2.7","6","0.00","0.00"
"12:14:58","70.4","54.4","56.9","30.14","58","1.1","3.6","0.00","0.00"
"12:19:57","70.6","54.8","57.5","30.13","51","1.8","4.8","0.00","0.00"
"12:24:59","70.8","54.8","57","30.13","1","1","6","0.00","0.00"
"12:29:58","71.2","55.1","56.7","30.13","356","2.4","7.2","0.00","0.00"
"12:34:56","70.8","54.3","56.1","30.12","116","2.3","7.2","0.00","0.00"
"12:39:56","71.2","55.8","58.2","30.12","4","1.9","7.2","0.00","0.00"
"12:44:58","71.3","55","56.5","30.12","47","1.7","4.8","0.00","0.00"
"12:49:57","71.2","55.4","57.5","30.12","335","0.9","3.6","0.00","0.00"
"12:54:56","71.4","55.5","57.2","30.12","22","1","2.4","0.00","0.00"
"12:59:59","71.2","55.6","57.8","30.12","96","2.3","4.8","0.00","0.00"
"13:04:59","70.9","55.3","57.9","30.12","126","2","4.8","0.00","0.00"
"13:09:58","70.9","55.5","58.1","30.12","84","1.6","3.6","0.00","0.00"
"13:14:58","70.8","55.4","58.1","30.12","79","1.7","4.8","0.00","0.00"
"13:19:56","71.3","56","58.6","30.11","123","2.6","7.2","0.00","0.00"
"13:24:59","71.7","56.7","59.2","30.11","115","1.9","6","0.00","0.00"
"13:29:58","71.5","56.3","58.7","30.11","109","2.1","4.8","0.00","0.00"
"13:34:56","71.7","56.9","59.6","30.11","109","2.1","8.4","0.00","0.00"
"13:39:59","71.6","56","57.8","30.11","355","2","8.1","0.00","0.00"
"13:44:58","71.6","56.3","58.6","30.11","102","2","6","0.00","0.00"
"13:49:58","71.7","56.1","58.1","30.10","120","1.2","2.4","0.00","0.00"
"13:54:57","71.9","55.9","57.3","30.10","83","1.5","3.6","0.00","0.00"
"13:59:59","72.4","56.7","57.9","30.10","350","0.8","3.6","0.00","0.00"
"14:04:59","72.6","56.9","57.9","30.09","68","1.5","4.8","0.00","0.00"
"14:09:58","73.3","57.4","57.5","30.09","43","0.8","4.8","0.00","0.00"
"14:14:58","73.1","56.2","55.6","30.09","113","2","7.2","0.00","0.00"
"14:19:57","71.9","55.8","57.1","30.09","124","1.2","3.6","0.00","0.00"
"14:24:56","71.7","56.3","58.3","30.09","118","2.8","12","0.00","0.00"
"14:29:58","71.3","56.4","59.5","30.09","101","2.2","10.8","0.00","0.00"
"14:34:57","71.2","56","58.9","30.08","123","2.3","6","0.00","0.00"
"14:39:56","71.6","56.6","59.1","30.08","172","1.3","4.6","0.00","0.00"
"14:44:59","72.1","56.6","58.1","30.08","166","1.5","4.8","0.00","0.00"
"14:49:57","71.8","56.6","58.8","30.07","52","1.6","3.6","0.00","0.00"
"14:54:56","71.3","56","58.5","30.07","100","2.1","3.6","0.00","0.00"
"14:59:58","71.2","56","58.6","30.07","122","1.7","4.8","0.00","0.00"
"15:04:58","71.1","56.2","59.5","30.07","114","1.5","4.6","0.00","0.00"
"15:09:57","71.3","56.7","60","30.07","106","1.7","3.6","0.00","0.00"
"15:14:56","71.8","57.1","60","30.07","84","1.2","3.6","0.00","0.00"
"15:19:59","72.2","57.4","59.6","30.06","40","0.9","6","0.00","0.00"
"15:24:59","72.5","57.4","59.2","30.06","105","1.2","5.8","0.00","0.00"
"15:29:59","72.5","57.8","59.8","30.06","75","0.7","2.4","0.00","0.00"
"15:34:59","73","58.3","60.1","30.05","130","2","7.2","0.00","0.00"
"15:39:58","73.2","57.8","58.6","30.05","47","1.4","3.6","0.00","0.00"
"15:44:56","73","58","59.4","30.05","97","1.8","6","0.00","0.00"
"15:49:59","72.7","57.2","58.3","30.05","76","1.9","5.8","0.00","0.00"
"15:54:58","72.7","57.5","59","30.05","119","2.8","7.2","0.00","0.00"
"15:59:56","72.6","57.4","58.9","30.05","89","1.4","3.6","0.00","0.00"
"16:04:56","72.6","58","60.3","30.04","126","2.5","6","0.00","0.00"
"16:09:59","72.3","57.9","60.6","30.04","107","2","4.8","0.00","0.00"
"16:14:58","72.6","58.3","60.9","30.04","56","1.2","4.8","0.00","0.00"
"16:19:56","72.5","58.2","60.8","30.04","33","1.8","7.2","0.00","0.00"
"16:24:59","72.2","58.1","61.3","30.04","42","1.4","3.6","0.00","0.00"
"16:29:57","72.2","58.7","62.6","30.04","160","0.7","2.4","0.00","0.00"
"16:34:59","72.4","59.1","63.1","30.04","129","1.2","3.6","0.00","0.00"
"16:39:59","72.4","58.6","62","30.04","134","2.1","6","0.00","0.00"
"16:44:57","72.9","59.3","62.4","30.04","139","1.2","3.6","0.00","0.00"
"16:49:59","73.4","59.5","61.9","30.03","108","1.1","3.6","0.00","0.00"
"16:54:57","73.3","59.4","61.8","30.03","35","1.6","3.6","0.00","0.00"
"16:59:56","73.2","59.3","61.9","30.03","85","1.4","4.8","0.00","0.00"
"17:04:56","72.9","59.6","63.1","30.02","304","1.1","4.8","0.00","0.00"
"17:09:59","72.8","59.3","62.6","30.02","143","1.2","3.6","0.00","0.00"
"17:14:58","72.9","59.6","63.1","30.02","21","1","2.4","0.00","0.00"
"17:19:56","72.8","59.7","63.4","30.02","10","0.8","4.8","0.00","0.00"
"17:24:59","73","59.5","62.8","30.02","75","1.1","3.6","0.00","0.00"
"17:29:57","73","59.5","62.5","30.02","113","1.2","3.5","0.00","0.00"
"17:34:59","73.3","59.4","62","30.01","38","1.8","4.8","0.00","0.00"
"17:39:58","73.1","59.1","61.6","30.01","67","0.6","2.4","0.00","0.00"
"17:44:57","73","59.1","61.9","30.01","356","0.9","3.6","0.00","0.00"
"17:49:56","72.8","58.7","61.2","30.01","88","1.9","7.2","0.00","0.00"
"17:54:58","73","58.6","60.8","30.01","36","1.4","3.6","0.00","0.00"
"17:59:57","72.8","58.6","61","30.01","59","1.5","3.6","0.00","0.00"
"18:04:57","72.8","58.6","61","30.00","70","0.8","2.4","0.00","0.00"
"18:09:57","72.8","58.6","61","30.00","69","1.2","3.6","0.00","0.00"
"18:14:56","73","58.8","61","30.00","11","1.3","4.8","0.00","0.00"
"18:19:58","73","58.8","61.2","29.99","338","1.1","2.4","0.00","0.00"
"18:24:57","72.8","58.7","61.2","29.99","91","0.7","2.4","0.00","0.00"
"18:29:59","72.8","58.4","60.6","29.99","30","0.5","2.4","0.00","0.00"
"18:34:57","72.8","58.7","61.3","29.99","32","0.9","2.4","0.00","0.00"
"18:39:57","72.8","58.9","61.7","29.99","93","0.1","1.2","0.00","0.00"
"18:44:59","72.8","58.8","61.4","29.99","83","0.8","3.6","0.00","0.00"
"18:49:57","72.9","59","61.7","29.99","115","1.3","6","0.00","0.00"
"18:54:56","72.9","59.1","62","29.99","138","1","3.5","0.00","0.00"
"18:59:58","72.8","58.8","61.5","29.99","136","1.4","4.8","0.00","0.00"
"19:04:58","72.7","58.6","61.3","29.99","127","2","6","0.00","0.00"
"19:09:57","72.4","58.5","61.7","29.99","342","0.7","3.5","0.00","0.00"
"19:14:56","72.2","58.4","61.8","30.00","351","1.1","3.6","0.00","0.00"
"19:19:58","72","58.8","63.2","30.00","106","2.3","7.2","0.00","0.00"
"19:24:56","71.4","59.5","66.1","30.00","112","3.4","9.6","0.00","0.00"
"19:29:58","70.6","59.9","69","30.00","126","3.2","12","0.00","0.00"
"19:34:56","69.8","60.2","71.4","30.00","118","3.5","7.2","0.00","0.00"
"19:39:59","68.8","60.5","75","30.00","116","2.4","12","0.00","0.00"
"19:44:57","67.5","60.7","78.8","30.01","118","2.1","6","0.00","0.00"
"19:49:59","66.7","60.7","81","30.01","28","0.5","2.4","0.00","0.00"
"19:54:58","66.2","60.5","82","30.01","28","1","2.4","0.00","0.00"
"19:59:56","65.8","60.5","83","30.01","46","0.6","2.4","0.00","0.00"
"20:04:56","65.7","60.3","82.8","30.01","50","0.5","2.4","0.00","0.00"
"20:09:55","65.6","60.3","83","30.01","46","0.2","1.2","0.00","0.00"
"20:14:56","65.6","60.3","83","30.01","46","0.1","2.4","0.00","0.00"
"20:19:59","65.6","60.3","83","30.00","46","0.1","2.4","0.00","0.00"
"20:24:58","65.6","60.3","83","30.00","46","0","1.2","0.00","0.00"
"20:29:58","65.5","60.2","83","30.00","65","0","0","0.00","0.00"
"20:34:57","65.5","60.2","83","30.00","64","0","1.2","0.00","0.00"
"20:39:57","65.5","60.2","83","30.00","64","0","1.2","0.00","0.00"
"20:44:56","65.5","60.2","82.8","30.00","64","0.1","1.2","0.00","0.00"
"20:49:59","65.6","60.3","83","30.00","64","0","1.2","0.00","0.00"
"20:54:58","65.6","60.3","83","30.00","65","0","0","0.00","0.00"
"20:59:57","65.6","60.3","82.9","30.00","71","0.3","2.4","0.00","0.00"
"21:04:57","65.8","60.3","82.3","30.00","6","0.3","3.6","0.00","0.00"
"21:09:57","65.9","60.8","83.6","30.00","28","0.3","2.3","0.00","0.00"
"21:14:56","65.8","60.8","84","30.00","28","0.1","1.2","0.00","0.00"
"21:19:55","65.8","60.8","84","30.00","26","0.1","1.2","0.00","0.00"
"21:24:58","65.7","60.7","84","30.00","26","0.1","1.2","0.00","0.00"
"21:29:57","65.7","60.7","84","30.00","26","0","1.2","0.00","0.00"
"21:34:56","65.7","60.7","84","30.00","36","0.2","2.4","0.00","0.00"
"21:39:57","65.7","60.7","84","30.00","49","0.2","1.2","0.00","0.00"
"21:44:56","65.8","60.6","83.5","30.00","50","0.3","2.4","0.00","0.00"
"21:49:59","65.8","60.6","83.4","30.00","50","0","2.3","0.00","0.00"
"21:54:58","65.8","60.5","83","30.00","36","0.4","3.6","0.00","0.00"
"21:59:56","65.8","60.5","83","30.00","15","0","1.2","0.00","0.00"
"22:04:57","65.8","60.5","83","30.00","15","0","0","0.00","0.00"
"22:09:56","65.8","60.5","83","30.00","14","0.4","2.4","0.00","0.00"
"22:14:56","65.8","60.5","83","30.01","13","0.1","1.2","0.00","0.00"
"22:19:59","65.8","60.5","83","30.01","13","0","1.2","0.00","0.00"
"22:24:58","65.8","60.3","82.3","30.01","13","0","1.2","0.00","0.00"
"22:29:57","65.9","60.2","82","30.01","13","0","0","0.00","0.00"
"22:34:56","66","60","81","30.01","13","0","0","0.00","0.00"
"22:39:56","66.1","60.1","81.2","30.01","13","0","0","0.00","0.00"
"22:44:59","66.1","60.3","81.5","30.01","13","0","0","0.00","0.00"
"22:49:58","66.1","60.1","81","30.00","13","0","0","0.00","0.00"
"22:54:57","66","60.2","81.5","30.00","13","0","1.2","0.00","0.00"
"22:59:56","66","60","81","30.00","13","0","0","0.00","0.00"
"23:04:56","66.1","59.5","79.3","30.00","13","0","0","0.00","0.00"
"23:09:56","66.3","58.9","77","30.00","13","0","0","0.00","0.00"
"23:14:56","66.6","58.8","76","30.00","13","0","0","0.00","0.00"
"23:19:59","66.8","58.3","74.4","30.00","48","0","1.2","0.00","0.00"
"23:24:58","67","58.3","73.6","30.00","48","0.2","2.4","0.00","0.00"
"23:29:57","67.2","58.3","73.2","30.00","122","0.6","4.8","0.00","0.00"
"23:34:57","67.3","58.5","73.6","30.00","128","0.5","2.4","0.00","0.00"
"23:39:56","67.3","58.9","74.5","30.00","128","0.3","3.6","0.00","0.00"
"23:44:59","67.1","58.8","74.7","30.00","120","0.5","3.5","0.00","0.00"
"23:49:58","66.8","58","73.2","29.99","115","0.1","1.2","0.00","0.00"
